Location: Unspecified
(0.0000°N, 0.0000°E)
Time: 14:46:30
(UTC+00:00)

Vanguard 1 - Visible Passes

Search period start: 16 November 2018 00:00
Search period end: 26 November 2018 00:00
Orbit: 649 x 3834 km, 34.3° (Epoch: 15 November)

Date Brightness Start Highest point End Pass type
(mag) Time Alt. Az. Time Alt. Az. Time Alt. Az.
16 Nov 13.1 18:12:41 10° NNW 18:29:57 25° NNE 18:41:00 14° ENE visible
16 Nov 12.6 20:40:04 10° NW 20:53:45 43° NNW 20:53:45 43° NNW visible
17 Nov 12.8 18:34:22 10° NW 18:52:58 31° NNE 19:01:27 21° ENE visible
17 Nov 12.6 21:01:31 10° NW 21:14:14 44° NNW 21:14:14 44° NNW visible
18 Nov 12.5 18:55:48 10° NW 19:15:37 38° NNE 19:22:03 29° ENE visible
18 Nov 12.6 21:23:12 10° NW 21:34:51 42° NW 21:34:51 42° NW visible
19 Nov 12.3 19:17:09 10° NW 19:37:57 47° NNE 19:42:49 39° ENE visible
19 Nov 12.8 21:45:10 10° WNW 21:55:37 38° WNW 21:55:37 38° WNW visible
20 Nov 12.0 19:38:32 10° NW 19:59:59 59° NNE 20:03:45 51° ENE visible
20 Nov 13.0 22:07:33 10° WNW 22:16:35 32° W 22:16:35 32° W visible
21 Nov 11.9 20:00:02 10° NW 20:21:45 74° NE 20:24:53 62° E visible
21 Nov 13.2 22:30:27 10° WNW 22:37:44 25° W 22:37:44 25° W visible
22 Nov 13.0 17:54:42 10° NW 18:16:07 41° NNE 18:31:50 10° E visible
22 Nov 11.8 20:21:45 10° NW 20:43:14 89° SW 20:46:13 66° SE visible
22 Nov 13.4 22:54:03 10° W 22:59:06 19° W 22:59:06 19° W visible
23 Nov 12.8 18:15:59 10° NW 18:38:27 51° NNE 18:54:03 10° ESE visible
23 Nov 12.0 20:43:47 10° WNW 21:04:30 71° SW 21:07:46 58° SSE visible
23 Nov 13.6 23:18:36 10° WSW 23:20:40 13° WSW 23:20:40 13° WSW visible
24 Nov 12.6 18:37:18 10° NW 19:00:30 63° NE 19:15:51 10° ESE visible
24 Nov 12.3 21:06:14 10° WNW 21:25:36 54° SW 21:29:34 44° S visible
25 Nov 12.4 18:58:46 10° NW 19:22:18 77° NE 19:37:17 10° ESE visible
25 Nov 12.6 21:29:13 10° WNW 21:46:40 41° SW 21:51:35 32° S visible
